Weather in Khakurinokhabl

Russia / Republic of Adygea     45°01′09″N   40°14′10″E
temp.,
°C
wind,
m/s
gust,
m/s
humid.,
%
clouds,
%
prec.,
mm/h
press.,
hPa
HPBL,
m
14 may, fri
fri1400:00+15ese512814 0.0 1010192
03:00+13sse22790 0.0 101018
06:00+15ese33660 0.0 101025
09:00+22ese45585 0.0 1010211
12:00+27ese46515 0.0 1010564
15:00+30e35510 0.0 1010860
18:00+28ne127138 0.0 100921
21:00+21n1184100 0.0 101011
15 may, sat
sat1500:00+17wsw468836 0.0 101193
03:00+15wsw35941 0.0 101272
06:00+14wsw35870 0.0 1014108
09:00+20w23695 0.0 1014367
12:00+24nw32650 0.0 1014589
15:00+26n226111 0.0 1013984
18:00+26nne22731 0.0 1012223
21:00+20ne33870 0.0 101225
16 may, sun
sun1600:00+18ne22935 1.3 101127
03:00+17se01955 1.4 101011
06:00+18wsw119686 0.0 101041
09:00+22nne128491 0.0 1009435
12:00+27ene346982 0.0 10081057
15:00+28ene5663100 0.0 10061421
18:00+26e48761 0.0 1004336
21:00+21e410851 0.0 1004169
17 may, mon
mon1700:00+18e358214 0.0 100364
03:00+17e11928 0.0 100314
06:00+18sw249421 0.0 100498
09:00+22wnw5778100 0.0 1005484
12:00+25wnw5662100 0.0 1007886
15:00+24wnw3564100 0.5 1009861
18:00+17nw2493100 3.4 101091
21:00+16wsw3692100 5.5 1011121
18 may, tue
tue1800:00+16w2290100 0.0 101132
03:00+15w399299 0.9 1011300
06:00+14wsw3996100 2.7 1013285
09:00+16wsw3688100 5.6 1014408
12:00+20wsw4676100 0.7 10141020
15:00+22wnw46674 0.7 10141129
18:00+21w47750 0.1 1014310
21:00+15wsw36860 0.1 101686